Regional Weather Roundup
Issued by NWS

Home | Current Version | Previous Version | Graphics & Text | Print | Product List | Glossary On
Versions: 1 2 3 4 5 6 7 8 9 10 11 12 13 14 15 16 17 18 19 20 21 22 23 24 25 26 27 28 29 30 31 32 33 34 35 36 37 38 39 40 41 42 43 44 45 46 47 48 49 50
000
ASUS43 KTOP 200708
RWRKS

WEATHER ROUNDUP FOR KANSAS
NATIONAL WEATHER SERVICE GOODLAND KS
200 AM CDT SUN APR 20 2014

NOTE:  "FAIR" INDICATES FEW OR NO CLOUDS BELOW 12,000 FEET WITH NO
SIGNIFICANT WEATHER AND/OR OBSTRUCTIONS TO VISIBILITY.

KSZ001>006-013>018-027>032-041>047-200800-
NORTHWEST KANSAS

CITY           SKY/WX    TMP DP  RH WIND       PRES   REMARKS
GOODLAND       PTCLDY    47  45  93 E8        30.01S
HAYS           MOCLDY    61  46  59 SW6       30.00R
HILL CITY      CLOUDY    59  51  75 CALM      29.98R
RUSSELL        MOCLDY    63  49  60 S18       29.98R
$$

KSZ061>065-074>080-084>089-200800-
SOUTHWEST KANSAS

CITY           SKY/WX    TMP DP  RH WIND       PRES   REMARKS
DODGE CITY     MOCLDY    57  47  69 S8        30.02F
ELKHART          N/A     55  45  69 S10         N/A
GARDEN CITY    MOCLDY    58  48  69 S13       30.00S
GREAT BEND     MOCLDY    63  48  59 S18       30.00S
LIBERAL        CLOUDY    57  48  72 S7        30.04F
PRATT          CLOUDY    61  48  63 S10       30.05S
$$

KSZ066>073-081>083-090>101-200800-
SOUTHEAST KANSAS

CITY           SKY/WX    TMP DP  RH WIND       PRES   REMARKS
CHANUTE        PTCLDY    56  46  69 SE7       30.10F
COFFEYVILLE    PTCLDY    59  47  64 S5        30.11S
HUTCHINSON     CLOUDY    63  48  58 S14       30.05R
MEDICINE LODGE   N/A     62  50  64 S7        30.05R
NEWTON         MOCLDY    63  45  51 S12       30.09R
PARSONS        PTCLDY    61  46  57 SE5       30.11F
WICHITA INTL   CLOUDY    63  49  60 S13       30.07R
WICHITA JABRA  MOCLDY    62  49  62 S15       30.07R
WICHITA MCCONL CLOUDY    63  52  67 S15       30.08R
WINFIELD       MOCLDY    63  50  62 S10       30.09S
$$

KSZ007>012-019>026-033>040-048>060-102>105-200800-
NORTHEAST KANSAS

CITY           SKY/WX    TMP DP  RH WIND       PRES   REMARKS
CONCORDIA      MOCLDY    64  49  57 S18G26    29.99R
EMPORIA        PTCLDY    59  46  62 S13       30.07R
LAWRENCE       CLEAR     55  45  68 SE7       30.09R
MANHATTAN      PTCLDY    65  47  52 S13       30.04R
OLATHE IND     PTCLDY    55  43  63 S5        30.11R
OLATHE EXE     PTCLDY    56  44  64 SE3       30.10R
SALINA         MOCLDY    64  48  56 S12       30.02R
TOPEKA BILLARD CLEAR     65  46  50 S13       30.07S
TOPEKA FORBES  CLEAR     62  45  53 S10       30.07S
$$



USA.gov is the U.S. government's official web portal to all federal, state and local government web resources and services.